This demonstration page uses our WeatherBlox Daily Observations layout. Learn more.

Left ArrowRight Arrow

34.02893, -84.19858

Hourly Observations for February 11, 2020

Temp ( °F °C ) Dew Point ( °F °C ) Humidity (%) Winds ( mph kmh ) Pressure ( in mb ) Visibility ( mi km ) Precip ( " mm )
12:26 am 00:26 Cloudy with Light Rain 53 11.7 52 11.1 96 96 SSE 3 6 30.10 1019 6 10 0.01 0.25
12:45 am 00:45 Cloudy with Light Rain 53 11.7 53 11.7 100 100 NE 6 9 30.07 1018 2 3 0.03 0.76
12:53 am 00:53 Cloudy with Light Rain 53 11.7 52 11.1 96 96 VRB 3 6 30.07 1018 5 8 0.03 0.76
1:14 am 01:14 Cloudy with Light Rain 53 11.7 53 11.7 100 100 Calm 30.06 1018 3 5 0.00 0.00
1:44 am 01:44 Cloudy with Light Rain 53 11.7 53 11.7 100 100 Calm 30.06 1018 4 6 0.01 0.25
1:53 am 01:53 Cloudy with Light Rain 53 11.7 53 11.7 100 100 Calm 30.07 1018 5 8 0.01 0.25
2:00 am 02:00 Cloudy with Light Rain 52 11.1 52 11.1 100 100 E 3 6 30.06 1018 2 3 0.00 0.00
2:15 am 02:15 Cloudy with Light Rain 53 11.7 53 11.7 100 100 Calm 30.05 1018 3 5 0.01 0.25
2:19 am 02:19 Cloudy with Light Rain 53 11.7 53 11.7 100 100 Calm 30.04 1017 3 4 0.01 0.25
2:42 am 02:42 Cloudy with Light Rain 53 11.7 53 11.7 100 100 Calm 30.04 1017 1 2 0.02 0.51
2:53 am 02:53 Cloudy with Light Rain 52 11.1 52 11.1 100 100 E 3 6 30.04 1017 1 2 0.02 0.51
3:00 am 03:00 Cloudy with Light Rain 52 11.1 52 11.1 100 100 Calm 30.03 1017 1 1 0.00 0.00
3:14 am 03:14 Cloudy with Light Rain 53 11.7 53 11.7 100 100 Calm 30.02 1017 1 2 0.00 0.00
3:21 am 03:21 Mostly Cloudy with Rain 53 11.7 53 11.7 100 100 Calm 30.01 1016 1 2 0.01 0.25
3:50 am 03:50 Cloudy with Light Rain 54 12 54 12 100 100 Calm 30.00 1016 3 4 0.04 1.02
3:53 am 03:53 Cloudy with Mist and Fog 53 11.7 53 11.7 100 100 Calm 30.01 1016 2 3 0.04 1.02
4:02 am 04:02 Cloudy with Light Rain 52 11.1 52 11.1 100 100 Calm 30.01 1016 1 2 0.00 0.00
4:27 am 04:27 Cloudy with Mist and Fog 53 11.7 53 11.7 100 100 SSW 3 6 30.00 1016 1 1 0.00 0.00
4:53 am 04:53 Cloudy with Light Rain 55 12.8 55 12.8 100 100 S 6 9 30.00 1016 1 2 0.01 0.25
5:07 am 05:07 Cloudy with Light Rain 57 13.9 57 13.9 100 100 S 9 15 29.99 1015 3 5 0.01 0.25
5:41 am 05:41 Cloudy with Light Rain 59 15 59 15 100 100 S 9 15 29.99 1016 8 13 0.02 0.51
5:53 am 05:53 Cloudy 60 15.6 60 15.6 100 100 S 10 17 30.00 1016 9 14 0.02 0.51
6:38 am 06:38 Cloudy 62 16.7 61 16.1 96 96 SSW 10 17 29.99 1015 10 16 0.01 0.25
6:53 am 06:53 Cloudy 63 17.2 62 16.7 97 97 SSW 12 19 29.99 1016 10 16 0.01 0.25
7:53 am 07:53 Cloudy with Light Rain 64 17.8 62 16.7 93 93 SSW 15 24 30.00 1016 5 8 0.00 0.00
8:40 am 08:40 Cloudy 65 18.3 63 17.2 93 93 SSW 16 26 29.98 1015 9 14 0.01 0.25
8:53 am 08:53 Cloudy 65 18.3 63 17.2 93 93 SSW 14 22 29.99 1016 9 14 0.01 0.25
9:53 am 09:53 Cloudy 66 18.9 63 17.2 90 90 SW 16 26 29.99 1016 10 16 0.00 0.00
10:53 am 10:53 Cloudy 67 19.4 63 17.2 87 87 SW 12 19 30.01 1016 10 16 0.00 0.00
11:53 am 11:53 Mostly Cloudy 69 20.6 64 17.8 84 84 SW 18 30 30.01 1016 10 16 0.00 0.00
12:00 pm 12:00 Mostly Cloudy 70 21.1 64 17.8 82 82 SW 20 31 29.99 1016 10 16 0.00 0.00
12:09 pm 12:09 Mostly Cloudy 69 20.6 63 17.2 81 81 SW 15 24 30.00 1016 10 16 0.00 0.00
12:17 pm 12:17 Mostly Cloudy 69 20.6 63 17.2 81 81 SW 15 24 29.99 1016 10 16 0.00 0.00
12:53 pm 12:53 Cloudy 70 21.1 64 17.8 82 82 SW 16 26 30.00 1016 10 16 0.00 0.00
1:53 pm 13:53 Cloudy 69 20.6 64 17.8 84 84 SW 15 24 29.98 1015 10 16 0.00 0.00
2:53 pm 14:53 Cloudy 70 21.1 64 17.8 82 82 SW 9 15 29.96 1015 10 16 0.00 0.00
3:53 pm 15:53 Mostly Cloudy 69 20.6 64 17.8 84 84 SW 13 20 29.96 1015 10 16 0.00 0.00
4:07 pm 16:07 Mostly Sunny 68 20 64 17.8 87 87 SW 12 19 29.94 1014 10 16 0.00 0.00
4:53 pm 16:53 Mostly Cloudy 68 20 64 17.8 87 87 SW 14 22 29.97 1015 10 16 0.00 0.00
5:13 pm 17:13 Cloudy 68 20 64 17.8 87 87 W 8 13 29.98 1015 10 16 0.00 0.00
5:53 pm 17:53 Cloudy with Light Rain 64 17.8 60 15.6 87 87 WNW 13 20 30.02 1017 10 16 0.01 0.25
6:00 pm 18:00 Cloudy with Light Rain 64 17.8 60 15.6 87 87 NW 10 17 30.02 1017 10 16 0.00 0.00
6:53 pm 18:53 Cloudy 62 16.7 59 15 90 90 W 6 9 30.04 1017 10 16 0.01 0.25
7:53 pm 19:53 Cloudy with Light Rain 60 15.6 58 14.4 93 93 WNW 9 15 30.08 1019 10 16 0.01 0.25
8:37 pm 20:37 Cloudy with Light Rain 58 14.4 57 13.9 97 97 WNW 6 9 30.10 1019 10 16 0.00 0.00
8:48 pm 20:48 Cloudy with Light Rain 57 14 57 14 100 100 W 6 9 30.10 1019 10 16 0.00 0.00
8:53 pm 20:53 Cloudy 58 14.4 57 13.9 97 97 WNW 7 11 30.08 1019 10 16 0.00 0.00
9:26 pm 21:26 Cloudy 58 14.4 56 13.3 93 93 W 7 11 30.09 1019 10 16 0.00 0.00
9:51 pm 21:51 Cloudy 57 14 55 13 94 94 W 9 15 30.11 1020 10 16 0.00 0.00
9:53 pm 21:53 Cloudy 57 13.9 56 13.3 96 96 WNW 9 15 30.09 1019 10 16 0.00 0.00
10:53 pm 22:53 Cloudy 57 13.9 56 13.3 96 96 W 3 6 30.07 1018 10 16 0.00 0.00
11:53 pm 23:53 Cloudy 56 13.3 55 12.8 97 97 WNW 5 7 30.07 1018 10 16 0.00 0.00

Powered by AerisWeather